Location: Demmingen
(48.6757°N, 10.4375°E)
Time: 12:39:35
(UTC+00:00)

Cosmos 1455 Rocket - Pass Details

Date: 18 August 2024
Orbit: 600 x 626 km, 82.5° (Epoch: 10 September)

Event Time Altitude Azimuth Distance (km) Brightness Sun altitude
Rises 03:38:24 0° 135° (SE) 2,871 6.7 -6.5°
Reaches altitude 10° 03:41:55 10° 105° (ESE) 1,966 6.4 -6.0°
Maximum altitude 03:43:36 12° 82° (E) 1,829 6.9 -5.7°
Drops below altitude 10° 03:45:17 10° 59° (ENE) 1,967 7.5 -5.5°
Sets 03:48:48 0° 29° (NNE) 2,872 7.5 -5.0°
